Liberia, Costa Rica

11:18 AM CST on February 10, 2016 (GMT -0600)
Daniel Oduber Quiros International

Weather History for MRLB - February, 2014

Change the Weather History Date:

Monday, February 3, 2014

  Actual Average Record
Temperature  
Mean Temperature 79 °F -  
Max Temperature 93 °F 90 °F 96 °F (2016)
Min Temperature 65 °F 74 °F 60 °F (2008)
Cooling Degree Days 14    
Growing Degree Days 29 (Base 50)    
Moisture  
Dew Point 62 °F    
Average Humidity 47    
Maximum Humidity 88    
Minimum Humidity 24    
Precipitation  
Precipitation 0.00 in - - ()
Sea Level Pressure  
Sea Level Pressure 29.82 in    
Wind  
Wind Speed 8 mph ()    
Max Wind Speed 16 mph    
Max Gust Speed -    
Visibility 9.4 miles    
Events      
Averages and records for this station are not official NWS values.
T = Trace of Precipitation, MM = Missing Value Source: Averaged Metar Reports

Daily Weather History Graph

Daily Weather History Graph

Search for Another Location

Airport or City:

Trip Planner

Search our weather history database for the weather conditions in past years. The results will help you decide how hot, cold, wet, or windy it might be!

Date:

Astronomy

Feb. 03, 2014 Rise Set
Actual Time 6:05 AM CST 5:47 PM CST
Civil Twilight 5:43 AM CST 6:08 PM CST
Nautical Twilight 5:17 AM CST 6:34 PM CST
Astronomical Twilight 4:52 AM CST 6:59 PM CST
Moon 9:02 AM CST (2/3) 9:35 PM CST (2/3)
Length of Visible Light 12h 25m
Length of Day
11h 41m
Waxing Crescent, 20% of the Moon is Illuminated
Feb 3
Waxing Crescent
Feb 6
First Quarter
Feb 14
Full
Feb 22
Last Quarter
Mar 1
New

Hourly Weather History & Observations

Time (CST) Temp. Heat Index Dew Point Humidity Pressure Visibility Wind Dir Wind Speed Gust Speed Precip Events Conditions
6:00 AM 68 °F - 63 °F 80% 29.83 in 12 mi East 5.8 mph - -  
6:00 AM 68.0 °F - 62.6 °F 83% 29.82 in - East 5.8 mph - N/A   Clear
7:00 AM 68.0 °F - 64.4 °F 88% 29.84 in - West 4.6 mph - N/A   Clear
8:00 AM 78.8 °F - 64.4 °F 61% 29.86 in - NNE 4.6 mph - N/A   Clear
9:00 AM 83 °F - 63 °F 40% 29.88 in 12 mi SE 5.8 mph - -   Clear
9:00 AM 82.4 °F 83.4 °F 62.6 °F 51% 29.87 in - SE 5.8 mph - N/A   Clear
10:00 AM 87.8 °F 87.6 °F 60.8 °F 40% 29.87 in - East 5.8 mph - N/A   Clear
11:00 AM 89.6 °F 89.5 °F 60.8 °F 38% 29.85 in - East 12.7 mph - N/A   Clear
12:00 PM 90 °F - 61 °F 28% 29.83 in 12 mi ESE 12.7 mph - -   Clear
12:00 PM 89.6 °F 89.5 °F 60.8 °F 38% 29.82 in - ESE 12.7 mph - N/A   Clear
1:00 PM 91.4 °F 91.4 °F 60.8 °F 36% 29.79 in - East 13.8 mph - N/A   Clear
2:00 PM 91.4 °F 90.7 °F 59.0 °F 34% 29.77 in - East 16.1 mph - N/A   Clear
3:00 PM 91 °F - 59 °F 24% 29.78 in 12 mi East 13.8 mph - -   Scattered Clouds
3:00 PM 91.4 °F 90.7 °F 59.0 °F 34% 29.76 in 6.2 mi East 13.8 mph - N/A   Mostly Cloudy
4:00 PM 89.6 °F 88.9 °F 59.0 °F 36% 29.76 in - East 13.8 mph - N/A   Clear
5:00 PM 86.0 °F 86.1 °F 60.8 °F 43% 29.77 in - East 13.8 mph - N/A   Clear
6:00 PM 84 °F - 63 °F 38% 29.81 in 12 mi East 11.5 mph - -   Overcast
6:00 PM 84.2 °F 85.0 °F 62.6 °F 48% 29.79 in 6.2 mi East 11.5 mph - N/A   Mostly Cloudy
7:00 PM 82.4 °F 83.9 °F 64.4 °F 54% 29.81 in 6.2 mi East 11.5 mph - N/A   Mostly Cloudy
8:00 PM 80.6 °F 81.8 °F 62.6 °F 54% 29.82 in 6.2 mi East 16.1 mph - N/A   Mostly Cloudy